| time (UTC) | temp C | wind direction | speed KPH | gust KPH | rain 1hr cm | rain 24hr cm | rain mn cm | humidity % | barometer mb |
| 20260504081512 | 11 | 141 | 3.2 | 8.0 | 0.00 | 0.00 | 0.00 | 49 | 1015.3 |
| 20260504044540 | 7 | 250 | 0.0 | 0.0 | 0.00 | 0.00 | 0.00 | 57 | 1015.5 |
| 20260504043049 | 7 | 250 | 0.0 | 0.0 | 0.00 | 0.00 | 0.00 | 56 | 1015.6 |
| 20260504041536 | 7 | 250 | 0.0 | 3.2 | 0.00 | 0.00 | 0.00 | 55 | 1015.6 |
| 20260504040033 | 7 | 250 | 0.0 | 0.0 | 0.00 | 0.00 | 0.00 | 55 | 1015.5 |
| 20260504034539 | 7 | 250 | 0.0 | 0.0 | 0.00 | 0.00 | 0.00 | 54 | 1015.4 |
| 20260504033032 | 7 | 250 | 0.0 | 3.2 | 0.00 | 0.00 | 0.00 | 53 | 1015.4 |
| 20260504031535 | 7 | 250 | 0.0 | 1.6 | 0.00 | 0.00 | 0.00 | 54 | 1015.2 |
| 20260504030036 | 7 | 250 | 0.0 | 1.6 | 0.00 | 0.00 | 0.00 | 54 | 1015.1 |
| 20260504024535 | 7 | 250 | 0.0 | 0.0 | 0.00 | 0.00 | 0.00 | 52 | 1015.1 |
| 20260504023030 | 7 | 250 | 0.0 | 1.6 | 0.00 | 0.00 | 0.00 | 52 | 1015.1 |
| 20260504021540 | 8 | 250 | 0.0 | 0.0 | 0.00 | 0.00 | 0.00 | 52 | 1015.1 |
| 20260504020036 | 8 | 250 | 0.0 | 0.0 | 0.00 | 0.00 | 0.00 | 50 | 1014.9 |
| 20260504014529 | 8 | 250 | 0.0 | 0.0 | 0.00 | 0.00 | 0.00 | 48 | 1015.0 |
| 20260504013034 | 8 | 250 | 0.0 | 0.0 | 0.00 | 0.00 | 0.00 | 49 | 1014.9 |
| 20260504011528 | 9 | 250 | 0.0 | 0.0 | 0.00 | 0.00 | 0.00 | 46 | 1014.6 |
| 20260504010027 | 10 | 250 | 0.0 | 1.6 | 0.00 | 0.00 | 0.00 | 46 | 1014.6 |
| 20260504004538 | 10 | 250 | 0.0 | 0.0 | 0.00 | 0.00 | 0.00 | 43 | 1014.6 |
| 20260504003026 | 11 | 250 | 0.0 | 0.0 | 0.00 | 0.00 | 0.00 | 42 | 1014.4 |
| 20260504001533 | 12 | 250 | 0.0 | 0.0 | 0.00 | 0.00 | 0.00 | 39 | 1014.3 |
| 20260504000025 | 13 | 250 | 0.0 | 3.2 | 0.00 | 0.00 | 0.00 | 38 | 1014.3 |
| 20260503234527 | 13 | 250 | 0.0 | 1.6 | 0.00 | 0.00 | 0.00 | 36 | 1013.9 |
| 20260503233024 | 14 | 250 | 0.0 | 1.6 | 0.00 | 0.00 | 0.00 | 31 | 1013.8 |
| 20260503231525 | 15 | 250 | 0.0 | 3.2 | 0.00 | 0.00 | 0.00 | 26 | 1013.8 |
| 20260503230026 | 15 | 251 | 0.0 | 4.8 | 0.00 | 0.00 | 0.00 | 25 | 1013.8 |
| 20260503224523 | 16 | 233 | 1.6 | 8.0 | 0.00 | 0.00 | 0.00 | 24 | 1013.7 |
| 20260503223022 | 16 | 354 | 1.6 | 6.4 | 0.00 | 0.00 | 0.00 | 23 | 1013.7 |
| 20260503221522 | 16 | 1 | 1.6 | 4.8 | 0.00 | 0.00 | 0.00 | 25 | 1013.9 |
| 20260503220030 | 16 | 34 | 3.2 | 9.7 | 0.00 | 0.00 | 0.00 | 22 | 1013.9 |
| 20260503214532 | 16 | 30 | 3.2 | 8.0 | 0.00 | 0.00 | 0.00 | 23 | 1013.9 |
| 20260503213030 | 17 | 252 | 1.6 | 9.7 | 0.00 | 0.00 | 0.00 | 23 | 1013.8 |
| 20260503211520 | 17 | 308 | 3.2 | 12.9 | 0.00 | 0.00 | 0.00 | 24 | 1013.8 |
| 20260503210020 | 17 | 265 | 3.2 | 9.7 | 0.00 | 0.00 | 0.00 | 25 | 1013.7 |
| 20260503204525 | 17 | 299 | 4.8 | 14.5 | 0.00 | 0.00 | 0.00 | 24 | 1013.9 |
| 20260503203017 | 17 | 300 | 4.8 | 12.9 | 0.00 | 0.00 | 0.00 | 25 | 1014.2 |
| 20260503201516 | 17 | 326 | 4.8 | 14.5 | 0.00 | 0.00 | 0.00 | 21 | 1014.2 |
| 20260503200015 | 17 | 276 | 3.2 | 12.9 | 0.00 | 0.00 | 0.00 | 24 | 1014.6 |
| 20260503194514 | 17 | 356 | 3.2 | 11.3 | 0.00 | 0.00 | 0.00 | 25 | 1014.6 |
| 20260503193012 | 17 | 319 | 4.8 | 12.9 | 0.00 | 0.00 | 0.00 | 25 | 1014.7 |
| 20260503191512 | 17 | 321 | 4.8 | 17.7 | 0.00 | 0.00 | 0.00 | 26 | 1015.0 |
| 20260503190016 | 17 | 273 | 6.4 | 16.1 | 0.00 | 0.00 | 0.00 | 24 | 1015.2 |
| 20260503184512 | 17 | 316 | 3.2 | 11.3 | 0.00 | 0.00 | 0.00 | 28 | 1015.2 |
| 20260503183007 | 16 | 236 | 6.4 | 17.7 | 0.00 | 0.00 | 0.00 | 25 | 1015.4 |
| 20260503181515 | 16 | 243 | 6.4 | 17.7 | 0.00 | 0.00 | 0.00 | 26 | 1015.5 |
| 20260503180013 | 16 | 1 | 6.4 | 14.5 | 0.00 | 0.00 | 0.00 | 27 | 1015.5 |
| 20260503174503 | 16 | 276 | 4.8 | 14.5 | 0.00 | 0.00 | 0.00 | 29 | 1015.6 |
| 20260503173001 | 16 | 307 | 3.2 | 8.0 | 0.00 | 0.00 | 0.00 | 28 | 1015.6 |
| 20260503171559 | 15 | 260 | 4.8 | 11.3 | 0.00 | 0.00 | 0.00 | 28 | 1015.8 |
| 20260503170112 | 15 | 289 | 6.4 | 14.5 | 0.00 | 0.00 | 0.00 | 27 | 1015.9 |